Airfield :
LOGIN :

Register | Disclaimer

   EN    FR    IT 

 










Legend :    VFR   Marginal VFR   IFR   Intensive IFR   Very Intensive IFR
Visi :
Ceiling :
>= 8 km
>= 3000ft
5 to 8 km
1000 to 3000 ft
1500m to 5 km
500 to 1000 ft
800 to 1500m
200 to 500 ft
< 800m
< 200 ft
Symbols :   Thunderstorms  Fog  Heavy snow  Heavy precipitations  Wind > 20 kt
SIGMETs :     Misc.  Thunderstorms  Icing  Turbulence  Mountain Waves  Volcanic Ashes







- Airport Elevation : 640 ft
- IATA code : AOC


EDAC - Altenburg-Nobitz

CURRENT METAR :
  • 251950Z AUTO 24006KT 9999 // FEW025/// BKN030/// BKN065/// 01/01 Q1021

EXPIRED METARs :
  • 251920Z AUTO VRB02KT 9999 // FEW037/// BKN055/// BKN064/// 01/01 Q1021
  • 251850Z AUTO 22006KT 9999 // FEW002/// SCT052/// 00/M00 Q1020
  • 251820Z AUTO VRB02KT 8000 // FEW050/// 01/01 Q1020
  • 251750Z AUTO 25004KT 9999 // FEW029/// SCT120/// BKN180/// 02/01 Q1019
  • 251720Z AUTO 32002KT 9999 // FEW009/// SCT032/// BKN086/// 02/01 Q1018

TAF TAF EDAC
Valid from the 25 at 18:00 until the 26 at 03:00 UTC


251700Z 2518/2603 29007KT 9999 BKN025
TEMPO 2518/2519 4500 SHRA BKN020CB
TEMPO 2523/2603 BKN012
No reported NOTAMs for that airfield.



MET'MAP, your aeronautical weather chart ! - Copyright ORBIFLY December 2007 - Disclaimer

ORBIFLY MET'MAP TEAM :

Programming & Development : Alexandra Zaïnal
Concept & Development : Baudouin d'Aumeries
Co-Development & Prog : Marc-Olivier Méhu
Technical & hardware support : Manuel Goepfert

Contact : metmap@orbifly.com




SOURCES & CREDITS :

   NOAA